EST,Max TemperatureF,Mean TemperatureF,Min TemperatureF,Max Dew PointF,MeanDew PointF,Min DewpointF,Max Humidity, Mean Humidity, Min Humidity, Max Sea Level PressureIn, Mean Sea Level PressureIn, Min Sea Level PressureIn, Max VisibilityMiles, Mean VisibilityMiles, Min VisibilityMiles, Max Wind SpeedMPH, Mean Wind SpeedMPH, Max Gust SpeedMPH,PrecipitationIn, CloudCover, Events, WindDirDegrees
2011-11-1,59,45,31,40,34,30,100,68,36,30.36,30.29,30.23,10,4,0,5,1,8,0.00,0,Fog,136
2011-11-2,65,49,33,38,33,29,92,59,26,30.39,30.29,30.17,10,10,4,7,1,14,0.00,0,,210
2011-11-3,67,53,39,38,35,32,85,58,30,30.16,30.03,29.91,10,10,10,8,2,10,0.00,0,,360
2011-11-4,57,47,36,41,33,23,83,59,35,30.28,30.08,29.90,10,10,7,17,8,23,0.00,1,,6
2011-11-5,58,44,29,27,21,14,78,48,17,30.40,30.34,30.29,10,10,10,15,5,18,0.00,0,,85
2011-11-6,63,47,30,27,21,15,78,49,20,30.44,30.36,30.31,10,10,10,9,2,15,0.00,0,,188
2011-11-7,67,50,33,40,35,27,76,55,34,30.41,30.34,30.30,10,10,10,10,2,14,0.00,0,,222
2011-11-8,70,54,37,43,38,34,86,58,30,30.30,30.22,30.13,10,10,9,7,1,12,0.00,0,,214
2011-11-9,72,54,36,54,42,34,92,61,29,30.12,29.99,29.88,10,10,6,14,4,20,0.11,3,Rain,198
2011-11-10,57,46,35,54,36,28,86,70,53,30.05,29.97,29.91,10,10,9,15,5,23,0.01,7,Rain,251
2011-11-11,43,39,34,29,25,21,82,64,45,30.08,30.01,29.91,10,10,9,13,6,21,0.00,5,,234
2011-11-12,62,49,36,30,25,19,56,42,27,30.10,30.07,30.03,10,10,10,17,7,24,0.00,0,,202
2011-11-13,65,59,53,42,32,16,48,34,20,30.04,29.94,29.85,10,10,2,18,8,31,0.00,2,,198
2011-11-14,74,68,61,53,49,41,56,50,44,29.89,29.81,29.73,10,10,10,21,11,32,T,4,,211
2011-11-15,71,62,52,57,53,50,100,77,53,29.99,29.90,29.75,10,6,2,17,3,26,1.03,8,Rain,200
2011-11-16,55,48,41,54,50,31,100,90,80,30.01,29.88,29.83,10,4,0,14,3,21,0.58,8,Fog-Rain,345
2011-11-17,42,37,31,33,25,13,79,59,38,30.33,30.11,30.00,10,9,2,20,6,28,T,4,Snow,292
2011-11-18,43,34,24,19,16,14,74,52,30,30.49,30.38,30.27,10,10,10,10,3,15,0.00,0,,188
2011-11-19,59,45,31,39,27,17,59,44,29,30.34,30.23,30.12,10,10,10,16,5,24,0.00,0,,188
2011-11-20,63,60,56,55,53,40,100,73,46,30.23,30.18,30.11,10,5,0,16,6,26,0.48,8,Fog-Rain,204
2011-11-21,56,51,45,55,46,44,100,97,93,30.28,30.22,30.17,4,2,0,12,4,16,0.13,8,Fog-Rain,3
2011-11-22,59,53,46,57,49,45,100,90,80,30.21,30.04,29.75,10,4,0,12,5,18,1.28,8,Fog-Rain,72
2011-11-23,60,48,36,56,42,34,93,77,61,30.27,29.92,29.63,10,9,1,14,6,25,0.15,6,Rain,268
2011-11-24,45,38,30,37,33,28,96,83,70,30.39,30.32,30.25,10,4,0,12,4,17,0.00,2,Fog,208
2011-11-25,60,46,32,36,31,21,100,66,31,30.33,30.27,30.17,10,8,0,15,5,23,0.00,0,Fog,202
2011-11-26,62,51,39,43,34,21,64,46,28,30.28,30.20,30.09,10,10,10,12,5,16,0.00,0,,187
2011-11-27,65,57,48,53,46,35,93,70,47,30.08,29.99,29.93,10,10,4,14,5,22,0.10,5,Rain,178
2011-11-28,67,60,52,52,50,48,96,74,52,30.00,29.93,29.80,10,10,7,15,5,22,0.01,2,,121
2011-11-29,64,52,39,54,38,30,70,68,65,29.77,29.69,29.66,10,10,10,13,7,23,0.45,8,Rain,224
2011-11-30,40,36,32,32,30,26,89,77,64,30.23,29.91,29.66,10,10,5,15,6,24,0.01,7,,237